E24CR-1 Weather Reports


Display with metric or nautical units.
time (UTC)temp
F
wind
direction
speed
MPH
gust
MPH
rain 1hr
in
rain 24hr
in
rain mn
in
humidity
%
barometer
mb
20260505051721 89 0 0.0 0.0 0.00 0.00 0.00 56 954.0
20260505050657 87 0 0.0 0.0 0.00 0.00 0.00 58 954.0
20260505041444 90 0 0.0 0.0 0.00 0.00 0.00 55 954.0
20260505040420 92 0 0.0 0.0 0.00 0.00 0.00 53 954.0
20260505035356 89 0 0.0 0.0 0.00 0.00 0.00 55 955.0
20260505034332 89 0 0.0 0.0 0.00 0.00 0.00 56 955.0
20260505033308 86 0 0.0 0.0 0.00 0.00 0.00 60 955.0
20260505032244 86 0 0.0 0.0 0.00 0.00 0.00 63 955.0
20260505031219 85 0 0.0 0.0 0.00 0.00 0.00 64 955.0
20260505030156 84 0 0.0 0.0 0.00 0.00 0.00 66 955.0
20260505025131 83 0 0.0 0.0 0.00 0.00 0.00 67 955.0
20260505024107 83 0 0.0 0.0 0.00 0.00 0.00 67 955.0
20260505023043 83 0 0.0 0.0 0.00 0.00 0.00 68 955.0
20260505022019 85 0 0.0 0.0 0.00 0.00 0.00 66 955.0
20260505020955 85 0 0.0 0.0 0.00 0.00 0.00 69 955.0
20260505015931 85 0 0.0 0.0 0.00 0.00 0.00 67 955.0
20260505014907 86 0 0.0 0.0 0.00 0.00 0.00 66 955.0
20260505013843 86 0 0.0 0.0 0.00 0.00 0.00 67 955.0
20260505012818 84 0 0.0 0.0 0.00 0.00 0.00 72 955.0
20260505011754 83 0 0.0 0.0 0.00 0.00 0.00 74 955.0
20260505010730 81 0 0.0 0.0 0.00 0.00 0.00 75 955.0
20260505005706 80 0 0.0 0.0 0.00 0.00 0.00 79 955.0
20260505004641 80 0 0.0 0.0 0.00 0.00 0.00 80 954.0
20260505003617 80 0 0.0 0.0 0.00 0.00 0.00 81 954.0
20260505002553 79 0 0.0 0.0 0.00 0.00 0.00 83 954.0
20260505001528 79 0 0.0 0.0 0.00 0.00 0.00 84 954.0
20260505000449 78 0 0.0 0.0 0.00 0.00 0.00 82 954.0
20260504235424 78 0 0.0 0.0 0.00 0.00 0.00 82 954.0
20260504234400 78 0 0.0 0.0 0.00 0.00 0.00 79 954.0
20260504233336 78 0 0.0 0.0 0.00 0.00 0.00 79 954.0
20260504232312 77 0 0.0 0.0 0.00 0.00 0.00 81 954.0
20260504231248 77 0 0.0 0.0 0.00 0.00 0.00 82 953.0
20260504230224 76 0 0.0 0.0 0.00 0.00 0.00 84 953.0
20260504225202 76 0 0.0 0.0 0.00 0.00 0.00 86 953.0
20260504224136 76 0 0.0 0.0 0.00 0.00 0.00 84 953.0
20260504223111 76 0 0.0 0.0 0.00 0.00 0.00 82 953.0
20260504222037 77 0 0.0 0.0 0.00 0.00 0.00 79 952.0
20260504221013 77 0 0.0 0.0 0.00 0.00 0.00 78 953.0
20260504215949 77 0 0.0 0.0 0.00 0.00 0.00 78 953.0
20260504214925 78 0 0.0 0.0 0.00 0.00 0.00 75 952.0
20260504213900 78 0 0.0 0.0 0.00 0.00 0.00 78 952.0
20260504212836 78 0 0.0 0.0 0.00 0.00 0.00 79 952.0
20260504211812 76 0 0.0 0.0 0.00 0.00 0.00 81 952.0
20260504210748 76 0 0.0 0.0 0.00 0.00 0.00 84 953.0
20260504205724 76 0 0.0 0.0 0.00 0.00 0.00 79 953.0
20260504204659 78 0 0.0 0.0 0.00 0.00 0.00 74 952.0
20260504203635 77 0 0.0 0.0 0.00 0.00 0.00 79 953.0
20260504202611 77 0 0.0 0.0 0.00 0.00 0.00 78 953.0
20260504201547 77 0 0.0 0.0 0.00 0.00 0.00 79 953.0
20260504200523 76 0 0.0 0.0 0.00 0.00 0.00 77 953.0
20260504195459 76 0 0.0 0.0 0.00 0.00 0.00 77 953.0
20260504194435 76 0 0.0 0.0 0.00 0.00 0.00 79 953.0
20260504193411 77 0 0.0 0.0 0.00 0.00 0.00 79 953.0
20260504192346 77 0 0.0 0.0 0.00 0.00 0.00 79 953.0
20260504191322 76 0 0.0 0.0 0.00 0.00 0.00 82 953.0
20260504190258 77 0 0.0 0.0 0.00 0.00 0.00 82 953.0
20260504185235 76 0 0.0 0.0 0.00 0.00 0.00 87 954.0
20260504184210 76 0 0.0 0.0 0.00 0.00 0.00 89 954.0
20260504183146 77 0 0.0 0.0 0.00 0.00 0.00 85 953.0
20260504182122 77 0 0.0 0.0 0.00 0.00 0.00 85 954.0
20260504181058 77 0 0.0 0.0 0.00 0.00 0.00 80 954.0
20260504180033 77 0 0.0 0.0 0.00 0.00 0.00 76 954.0
20260504175009 79 0 0.0 0.0 0.00 0.00 0.00 71 954.0
20260504173945 80 0 0.0 0.0 0.00 0.00 0.00 69 954.0
20260504172921 81 0 0.0 0.0 0.00 0.00 0.00 64 954.0
20260504171857 82 0 0.0 0.0 0.00 0.00 0.00 62 954.0
20260504170833 82 0 0.0 0.0 0.00 0.00 0.00 60 954.0
20260504150341 87 0 0.0 0.0 0.00 0.00 0.00 46 952.0
20260504141139 89 0 0.0 0.0 0.00 0.00 0.00 43 951.0
20260504140116 89 0 0.0 0.0 0.00 0.00 0.00 43 951.0
20260504110422 96 0 0.0 0.0 0.00 0.00 0.00 32 948.0
20260504100157 100 0 0.0 0.0 0.00 0.00 0.00 27 948.0
20260504081755 105 0 0.0 0.0 0.00 0.00 0.00 25 949.0
20260504080731 102 0 0.0 0.0 0.00 0.00 0.00 26 949.0
20260504060240 102 0 0.0 0.0 0.00 0.00 0.00 27 951.0